Pagina principale
METAR-TAF:

METAR-TAF

Aeroporti :

Payerne, Svizzera

latitudine: 46-49N, longitudine: 006-57E, altezza: 490 m

Osservazione

Il bollettino è stato emesso 31 minuti fa, alle 22:50 UTC
Vento calmo
Temperature 6°C
Umidità 100%
Pressione 1010 hPa
Visibilità 10 km o più

METAR: LSMP 152250Z AUTO 00000KT 9999NDV NCD 06/06 Q1010 RMK

Ora: 01:21 (23:21 UTC)


TAF: mancante

Osservazioni e previsioni meteorologiche di più di 4000 aeroporti (messaggi METAR e TAF).

Le stazioni disponibili sono rappresentate dai dischi gialli e rossi sulla carta.

Puntare il mouse per vedere il nome della stazione.

Clicca sopra per visualizzare le osservazioni e previsioni meteorologiche.

Per cambiare la mappa : fare clic sui pulsanti verdi con una croce nera per ingrandire, il pulsante verde con un trattino per diminuire, o sulla freccia verde per le mappe adiacenti.


METAR-TAF: